Location: Unspecified
(0.0000°N, 0.0000°E)
Time: 14:29:14
(UTC+00:00)

Envisat - Pass Details

Date: 15 April 2021
Orbit: 764 x 766 km, 98.1° (Epoch: 16 April)

Event Time Altitude Azimuth Distance (km) Brightness Sun altitude
Rises 05:11:54 0° 10° (N) 3,213 6.5 -11.9°
Reaches altitude 10° 05:14:11 10° 9° (N) 2,290 5.7 -11.3°
Maximum altitude 05:19:14 82° 282° (WNW) 775 3.0 -10.1°
Drops below altitude 10° 05:24:19 10° 195° (SSW) 2,301 5.2 -8.8°
Sets 05:26:38 0° 194° (SSW) 3,230 6.0 -8.2°
